Worthington, MN

6:03 PM CDT on September 25, 2017 (GMT -0500)
Worthington Municipal

Weather History for KOTG - April, 2013

Change the Weather History Date:

Tuesday, April 16, 2013

  Actual Average Record
Temperature  
Mean Temperature 32 °F -  
Max Temperature 37 °F 53 °F 84 °F (2002)
Min Temperature 28 °F 34 °F 23 °F (1983)
Degree Days  
Heating Degree Days 32    
Moisture  
Dew Point 26 °F    
Average Humidity 76    
Maximum Humidity 87    
Minimum Humidity 60    
Precipitation  
Precipitation 0.00 in - - ()
Sea Level Pressure  
Sea Level Pressure 30.20 in    
Wind  
Wind Speed 10 mph (NNW)    
Max Wind Speed 13 mph    
Max Gust Speed 17 mph    
Visibility 10 miles    
Events      
Averages and records for this station are not official NWS values.
T = Trace of Precipitation, MM = Missing Value Source: NWS Daily Summary

Daily Weather History Graph

Daily Weather History Graph

Search for Another Location

Airport or City:

Trip Planner

Search our weather history database for the weather conditions in past years. The results will help you decide how hot, cold, wet, or windy it might be!

Date:

Astronomy

Apr. 16, 2013 Rise Set
Actual Time 6:37 AM CDT 8:07 PM CDT
Civil Twilight 6:07 AM CDT 8:37 PM CDT
Nautical Twilight 5:31 AM CDT 9:13 PM CDT
Astronomical Twilight 4:52 AM CDT 9:52 PM CDT
Moon 10:52 AM CDT (4/16) 1:10 AM CDT (4/16)
Length of Visible Light 14h 29m
Length of Day
13h 29m
Waxing Crescent, 33% of the Moon is Illuminated
Apr 16
Waxing Crescent
Apr 18
First Quarter
Apr 25
Full
May 2
Last Quarter
May 9
New

Hourly Weather History & Observations

Time (CDT) Temp. Windchill Dew Point Humidity Pressure Visibility Wind Dir Wind Speed Gust Speed Precip Events Conditions
12:15 AM 32.0 °F 23.6 °F 24.8 °F 75% 30.04 in 10.0 mi West 10.4 mph - N/A   Overcast
12:35 AM 30.2 °F 21.3 °F 24.8 °F 80% 30.05 in 10.0 mi West 10.4 mph - N/A   Mostly Cloudy
12:55 AM 30.2 °F 21.3 °F 24.8 °F 80% 30.06 in 10.0 mi West 10.4 mph - N/A   Scattered Clouds
1:15 AM 30.2 °F 22.6 °F 24.8 °F 80% 30.05 in 10.0 mi West 8.1 mph - N/A   Partly Cloudy
1:35 AM 30.2 °F 21.3 °F 24.8 °F 80% 30.06 in 10.0 mi West 10.4 mph - N/A   Clear
1:55 AM 30.2 °F 21.3 °F 26.6 °F 86% 30.07 in 10.0 mi West 10.4 mph - N/A   Mostly Cloudy
2:15 AM 30.2 °F 22.6 °F 26.6 °F 86% 30.07 in 10.0 mi West 8.1 mph - N/A   Overcast
2:35 AM 30.2 °F 21.9 °F 26.6 °F 86% 30.07 in 10.0 mi West 9.2 mph - N/A   Overcast
2:55 AM 30.2 °F 21.9 °F 26.6 °F 86% 30.08 in 10.0 mi West 9.2 mph - N/A   Overcast
3:15 AM 30.2 °F 21.3 °F 26.6 °F 86% 30.09 in 10.0 mi West 10.4 mph - N/A   Overcast
3:35 AM 30.2 °F 21.3 °F 26.6 °F 86% 30.09 in 10.0 mi West 10.4 mph - N/A   Overcast
3:55 AM 30.2 °F 21.9 °F 26.6 °F 86% 30.08 in 10.0 mi West 9.2 mph - N/A   Overcast
4:15 AM 30.2 °F 21.9 °F 26.6 °F 86% 30.08 in 10.0 mi West 9.2 mph - N/A   Overcast
4:35 AM 30.2 °F 20.8 °F 26.6 °F 86% 30.09 in 10.0 mi WNW 11.5 mph - N/A   Overcast
4:55 AM 30.2 °F 21.3 °F 24.8 °F 80% 30.11 in 10.0 mi WNW 10.4 mph - N/A   Scattered Clouds
5:15 AM 30.2 °F 21.9 °F 24.8 °F 80% 30.11 in 10.0 mi WNW 9.2 mph - N/A   Clear
5:35 AM 30.2 °F 21.9 °F 24.8 °F 80% 30.12 in 10.0 mi WNW 9.2 mph - N/A   Clear
5:55 AM 30.2 °F 21.3 °F 24.8 °F 80% 30.14 in 10.0 mi WNW 10.4 mph - N/A   Clear
6:15 AM 30.2 °F 21.3 °F 24.8 °F 80% 30.14 in 10.0 mi WNW 10.4 mph - N/A   Clear
6:35 AM 28.4 °F 19.7 °F 24.8 °F 86% 30.13 in 10.0 mi WNW 9.2 mph - N/A   Clear
6:55 AM 28.4 °F 19.1 °F 24.8 °F 86% 30.14 in 10.0 mi WNW 10.4 mph - N/A   Clear
7:15 AM 28.4 °F 19.7 °F 24.8 °F 86% 30.16 in 10.0 mi West 9.2 mph - N/A   Clear
7:35 AM 28.4 °F 19.1 °F 24.8 °F 86% 30.18 in 10.0 mi WNW 10.4 mph - N/A   Clear
7:55 AM 30.2 °F 21.9 °F 24.8 °F 80% 30.18 in 10.0 mi WNW 9.2 mph - N/A   Clear
8:15 AM 30.2 °F 22.6 °F 24.8 °F 80% 30.19 in 10.0 mi WNW 8.1 mph - N/A   Clear
8:35 AM 30.2 °F 21.9 °F 24.8 °F 80% 30.20 in 10.0 mi WNW 9.2 mph - N/A   Clear
8:55 AM 30.2 °F 22.6 °F 24.8 °F 80% 30.20 in 10.0 mi NW 8.1 mph - N/A   Clear
9:15 AM 30.2 °F 20.8 °F 24.8 °F 80% 30.21 in 10.0 mi NW 11.5 mph - N/A   Clear
9:35 AM 32.0 °F 24.2 °F 24.8 °F 75% 30.23 in 10.0 mi NNW 9.2 mph - N/A   Clear
9:55 AM 32.0 °F 23.6 °F 24.8 °F 75% 30.23 in 10.0 mi NNW 10.4 mph - N/A   Clear
10:15 AM 32.0 °F 23.6 °F 24.8 °F 75% 30.23 in 10.0 mi NNW 10.4 mph - N/A   Clear
10:35 AM 32.0 °F 23.6 °F 24.8 °F 75% 30.24 in 10.0 mi NW 10.4 mph - N/A   Partly Cloudy
10:55 AM 32.0 °F 24.8 °F 24.8 °F 75% 30.25 in 10.0 mi NNW 8.1 mph - N/A   Partly Cloudy
11:15 AM 33.8 °F 26.4 °F 24.8 °F 70% 30.25 in 10.0 mi North 9.2 mph 16.1 mph N/A   Mostly Cloudy
11:35 AM 33.8 °F 25.8 °F 24.8 °F 70% 30.25 in 10.0 mi North 10.4 mph - N/A   Mostly Cloudy
11:55 AM 33.8 °F 25.8 °F 24.8 °F 70% 30.26 in 10.0 mi North 10.4 mph - N/A   Partly Cloudy
12:15 PM 33.8 °F 26.4 °F 24.8 °F 70% 30.26 in 10.0 mi North 9.2 mph - N/A   Clear
12:35 PM 33.8 °F 26.4 °F 24.8 °F 70% 30.26 in 10.0 mi North 9.2 mph - N/A   Clear
12:55 PM 33.8 °F 27.7 °F 24.8 °F 70% 30.27 in 10.0 mi North 6.9 mph - N/A   Clear
1:15 PM 33.8 °F - 24.8 °F 70% 30.27 in 10.0 mi Calm Calm - N/A   Scattered Clouds
1:35 PM 35.6 °F 30.7 °F 26.6 °F 70% 30.26 in 10.0 mi NNW 5.8 mph - N/A   Scattered Clouds
1:55 PM 35.6 °F 29.9 °F 26.6 °F 70% 30.26 in 10.0 mi NNW 6.9 mph - N/A   Partly Cloudy
2:15 PM 35.6 °F 28.6 °F 24.8 °F 65% 30.26 in 10.0 mi NNW 9.2 mph - N/A   Partly Cloudy
2:35 PM 35.6 °F 29.2 °F 26.6 °F 70% 30.26 in 10.0 mi NNW 8.1 mph - N/A   Clear
2:55 PM 35.6 °F 27.5 °F 26.6 °F 70% 30.26 in 10.0 mi North 11.5 mph - N/A   Clear
3:15 PM 35.6 °F 28.0 °F 26.6 °F 70% 30.26 in 10.0 mi NNW 10.4 mph - N/A   Clear
3:35 PM 35.6 °F 29.2 °F 26.6 °F 70% 30.26 in 10.0 mi North 8.1 mph - N/A   Partly Cloudy
3:55 PM 37.4 °F 30.8 °F 26.6 °F 65% 30.26 in 10.0 mi NW 9.2 mph - N/A   Scattered Clouds
4:15 PM 37.4 °F 30.8 °F 26.6 °F 65% 30.26 in 10.0 mi NNW 9.2 mph - N/A   Partly Cloudy
4:35 PM 37.4 °F 29.8 °F 26.6 °F 65% 30.26 in 10.0 mi North 11.5 mph - N/A   Partly Cloudy
4:55 PM 37.4 °F 29.8 °F 24.8 °F 60% 30.25 in 10.0 mi North 11.5 mph 16.1 mph N/A   Clear
5:15 PM 37.4 °F 29.3 °F 26.6 °F 65% 30.25 in 10.0 mi NNW 12.7 mph - N/A   Clear
5:35 PM 37.4 °F 29.3 °F 24.8 °F 60% 30.24 in 10.0 mi North 12.7 mph - N/A   Clear
5:55 PM 37.4 °F 29.3 °F 26.6 °F 65% 30.24 in 10.0 mi North 12.7 mph 17.3 mph N/A   Clear
6:15 PM 37.4 °F 29.3 °F 26.6 °F 65% 30.25 in 10.0 mi North 12.7 mph - N/A   Clear
6:35 PM 35.6 °F 27.1 °F 24.8 °F 65% 30.25 in 10.0 mi North 12.7 mph - N/A   Clear
6:55 PM 35.6 °F 27.5 °F 26.6 °F 70% 30.25 in 10.0 mi North 11.5 mph - N/A   Clear
7:15 PM 33.8 °F 25.3 °F 26.6 °F 75% 30.26 in 10.0 mi North 11.5 mph - N/A   Clear
7:35 PM 33.8 °F 27.0 °F 26.6 °F 75% 30.27 in 10.0 mi North 8.1 mph - N/A   Clear
7:55 PM 33.8 °F 25.8 °F 26.6 °F 75% 30.27 in 10.0 mi NNE 10.4 mph - N/A   Clear
8:15 PM 32.0 °F 24.8 °F 26.6 °F 80% 30.27 in 10.0 mi North 8.1 mph - N/A   Partly Cloudy
8:35 PM 33.8 °F 27.0 °F 26.6 °F 75% 30.27 in 10.0 mi North 8.1 mph - N/A   Mostly Cloudy
8:55 PM 32.0 °F 24.2 °F 26.6 °F 80% 30.28 in 10.0 mi North 9.2 mph - N/A   Overcast
9:15 PM 32.0 °F 24.2 °F 26.6 °F 80% 30.28 in 10.0 mi North 9.2 mph - N/A   Overcast
9:35 PM 32.0 °F 24.2 °F 26.6 °F 80% 30.29 in 10.0 mi North 9.2 mph - N/A   Overcast
9:55 PM 32.0 °F 22.5 °F 26.6 °F 80% 30.28 in 10.0 mi NNE 12.7 mph - N/A   Overcast
10:15 PM 32.0 °F 22.5 °F 26.6 °F 80% 30.29 in 10.0 mi NNE 12.7 mph - N/A   Overcast
10:35 PM 32.0 °F 24.8 °F 26.6 °F 80% 30.29 in 10.0 mi NNE 8.1 mph - N/A   Overcast
10:55 PM 32.0 °F 24.2 °F 26.6 °F 80% 30.28 in 10.0 mi NNE 9.2 mph - N/A   Overcast
11:15 PM 32.0 °F 23.6 °F 26.6 °F 80% 30.28 in 10.0 mi NNE 10.4 mph - N/A   Overcast
11:35 PM 32.0 °F 23.0 °F 26.6 °F 80% 30.27 in 10.0 mi NNE 11.5 mph - N/A   Overcast
11:55 PM 32.0 °F 24.2 °F 28.4 °F 87% 30.27 in 10.0 mi NNE 9.2 mph - N/A   Overcast